Hourly Weather Roundup
Issued by NWS Central Illinois

Home | Current Version | Previous Version | Text Only | Print | Product List | Glossary On
Versions: 1 2 3 4 5 6 7 8 9 10 11 12 13 14 15 16 17 18 19 20 21 22 23 24 25 26 27 28 29 30 31 32 33 34 35 36 37 38 39 40 41 42 43 44 45 46 47 48 49 50
000
NZUS43 KILX 241610
HWRILX

AREA WEATHER ROUNDUP
NATIONAL WEATHER SERVICE, LINCOLN IL
1100 AM CDT SUN MAY 24 2015


CITY           SKY/WX    TMP DP  RH WIND       PRES   REMARKS
BLOOMINGTON    CLOUDY    78  60  53 S18G26    30.09F
CHAMPAIGN      PTSUNNY   83  58  42 S20G25    30.11F HX  83
DANVILLE       SUNNY     78  58  49 S14       30.11F
DECATUR        PTSUNNY   79  61  53 S15       30.09F HX  80
EFFINGHAM      MOSUNNY   79  57  47 SE12G17   30.13S HX  80
FLORA          SUNNY     79  59  50 S17       30.12F HX  80
GALESBURG      CLOUDY    68  60  74 E7        30.01F
JACKSONVILLE   PTSUNNY   80  64  57 S12G20    30.02F HX  82
LACON          CLOUDY    71  57  61 SE6       30.05F
LAWRENCEVILLE  SUNNY     80  57  45 S18G25    30.16F HX  80
LITCHFIELD     PTSUNNY   75  62  64 S16       30.07F
$$


CITY           SKY/WX    TMP DP  RH WIND       PRES   REMARKS
LINCOLN        PTSUNNY   80  59  47 S17G26    30.04F HX  81
MACOMB         CLOUDY    73  60  64 SE15      30.02F
MATTOON        MOSUNNY   76  59  55 S13G28    30.12F
MT CARMEL AP   MOSUNNY   81  50  34 S16       30.14F HX  80
OLNEY-NOBLE AP MOSUNNY   79  59  50 S12       30.13F HX  80
PARIS          SUNNY     80  58  46 S18       30.15F HX  81
PEORIA         CLOUDY    76  59  55 SE9       30.04F
PONTIAC        CLOUDY    78  58  50 SE12      30.10F
RANTOUL        PTSUNNY   83  59  43 S15G29    30.11F HX  83
ROBINSON       PTSUNNY   79  56  45 S14G20    30.16S HX  80
SPRINGFIELD    PTSUNNY   80  62  54 S15G22    30.05F HX  81
TAYLORVILLE    PTSUNNY   75  63  64 S15       30.08S
$$

...REGIONAL REPORTS...


CITY           SKY/WX    TMP DP  RH WIND       PRES   REMARKS
CHICAGO O`HARE CLOUDY    69  53  56 E8        30.15S
KANKAKEE       PTSUNNY   76  58  54 SE8G16    30.13F
MOLINE         CLOUDY    62  58  86 E12       30.01F
MOUNT VERNON   MOSUNNY   81  63  54 S12G21    30.12S HX  82
PITTSFIELD     MOSUNNY   78  62  58 S17G25    30.01F
QUINCY         CLOUDY    74  60  61 S16G22    29.97F
ROCKFORD       LGT RAIN  65  56  72 E9        30.13F
$$


CITY           SKY/WX    TMP DP  RH WIND       PRES   REMARKS
BURLINGTON     CLOUDY    69  61  75 SE10      29.97F
CEDAR RAPIDS   HVY RAIN  60  59  96 E14G23    29.98F
DES MOINES     CLOUDY    63  60  90 SE13      29.88F FOG
KIRKSVILLE     CLOUDY    69  65  86 S14G23    29.93F
OTTUMWA        CLOUDY    66  62  87 SE13      29.92F
ST LOUIS       PTSUNNY   79  63  57 S10G20    30.03F HX  80
$$


CITY           SKY/WX    TMP DP  RH WIND       PRES   REMARKS
TERRE HAUTE    MOSUNNY   78  59  51 S13       30.16F
EVANSVILLE     SUNNY     79  57  46 S13       30.17F HX  80
INDIANAPOLIS   PTSUNNY   78  56  46 SW14      30.19F
LAFAYETTE      PTSUNNY   78  57  48 S12G17    30.15F
MADISON        LGT RAIN  61  56  83 SE6       30.16S
MILWAUKEE      CLOUDY    66  54  65 W3        30.18S
$$





USA.gov is the U.S. government's official web portal to all federal, state and local government web resources and services.